DW2070 Weather Reports


Display with metric or nautical units.
time (UTC)temp
F
wind
direction
speed
MPH
gust
MPH
rain 1hr
in
rain 24hr
in
rain mn
in
humidity
%
barometer
mb
20260508000004 74 256 5.0 10.0 0.00 0.00 0.00 57 1014.3
20260507235004 74 245 5.0 11.0 0.00 0.00 0.00 57 1014.4
20260507234004 74 257 6.0 11.0 0.00 0.00 0.00 56 1014.4
20260507233004 75 248 5.0 13.0 0.00 0.00 0.00 56 1014.5
20260507232004 75 238 5.0 12.0 0.00 0.00 0.00 56 1014.4
20260507231004 75 235 5.0 11.0 0.00 0.00 0.00 55 1014.3
20260507230025 75 235 5.0 11.0 0.00 0.00 0.00 55 1014.5
20260507225004 75 238 5.0 14.0 0.00 0.00 0.00 55 1014.7
20260507224004 75 235 5.0 12.0 0.00 0.00 0.00 56 1014.7
20260507223005 75 248 5.0 11.0 0.00 0.00 0.00 56 1014.8
20260507222025 75 250 5.0 13.0 0.00 0.00 0.00 55 1014.8
20260507221004 74 245 6.0 12.0 0.00 0.00 0.00 57 1014.9
20260507220004 74 250 6.0 13.0 0.00 0.00 0.00 56 1015.1
20260507215004 74 240 6.0 13.0 0.00 0.00 0.00 57 1015.2
20260507214025 75 240 6.0 12.0 0.00 0.00 0.00 54 1015.3
20260507213004 75 244 6.0 13.0 0.00 0.00 0.00 55 1015.3
20260507212004 74 247 6.0 12.0 0.00 0.00 0.00 56 1015.4
20260507211004 74 255 8.0 17.0 0.00 0.00 0.00 58 1015.4
20260507210005 74 249 7.0 17.0 0.00 0.00 0.00 58 1015.7
20260507205004 74 243 7.0 14.0 0.00 0.00 0.00 57 1015.8
20260507204004 74 245 6.0 15.0 0.00 0.00 0.00 58 1015.9
20260507203004 74 244 6.0 12.0 0.00 0.00 0.00 58 1015.8
20260507202004 74 239 6.0 12.0 0.00 0.00 0.00 58 1016.0
20260507201004 74 248 6.0 14.0 0.00 0.00 0.00 59 1016.0
20260507200004 74 239 6.0 11.0 0.00 0.00 0.00 59 1016.1
20260507195004 74 243 6.0 12.0 0.00 0.00 0.00 58 1016.2
20260507194004 74 246 6.0 14.0 0.00 0.00 0.00 60 1016.2
20260507193004 74 251 5.0 14.0 0.00 0.00 0.00 60 1016.3
20260507192004 74 259 4.0 11.0 0.00 0.00 0.00 61 1016.3
20260507191004 74 255 5.0 10.0 0.00 0.00 0.00 62 1016.2
20260507190005 74 243 5.0 12.0 0.00 0.00 0.00 62 1016.3
20260507185004 74 259 4.0 12.0 0.00 0.00 0.00 61 1016.4
20260507184004 73 255 5.0 9.0 0.00 0.00 0.00 62 1016.5
20260507183004 73 250 5.0 11.0 0.00 0.00 0.00 62 1016.3
20260507182004 73 245 4.0 10.0 0.00 0.00 0.00 62 1016.3
20260507180025 74 257 3.0 9.0 0.00 0.00 0.00 60 1016.5
20260507175004 73 237 3.0 9.0 0.00 0.00 0.00 59 1016.4
20260507174004 73 268 3.0 9.0 0.00 0.00 0.00 59 1016.6
20260507173004 72 229 3.0 8.0 0.00 0.00 0.00 61 1016.5
20260507172004 72 261 3.0 8.0 0.00 0.00 0.00 62 1016.5
20260507171004 70 247 3.0 7.0 0.00 0.00 0.00 63 1016.5
20260507170004 71 243 3.0 6.0 0.00 0.00 0.00 63 1016.5
20260507165004 70 246 2.0 8.0 0.00 0.00 0.00 64 1016.5
20260507164004 70 263 3.0 6.0 0.00 0.00 0.00 65 1016.8
20260507163004 69 236 2.0 6.0 0.00 0.00 0.00 68 1016.9
20260507162004 68 253 3.0 7.0 0.00 0.00 0.00 69 1016.9
20260507161025 68 231 2.0 6.0 0.00 0.00 0.00 70 1016.8
20260507160004 67 198 2.0 6.0 0.00 0.00 0.00 70 1016.8
20260507155004 66 154 1.0 4.0 0.00 0.00 0.00 74 1016.8
20260507154004 64 153 1.0 3.0 0.00 0.00 0.00 79 1016.8
20260507153004 61 139 1.0 3.0 0.00 0.00 0.00 86 1016.9
20260507152004 58 134 1.0 4.0 0.00 0.00 0.00 89 1016.8
20260507151004 58 134 0.0 3.0 0.00 0.00 0.00 89 1017.0
20260507150004 57 134 1.0 2.0 0.00 0.00 0.00 89 1017.0
20260507145003 56 134 1.0 2.0 0.00 0.00 0.00 89 1017.1
20260507144004 55 134 1.0 3.0 0.00 0.00 0.00 88 1017.0
20260507143004 55 134 1.0 3.0 0.00 0.00 0.00 89 1016.9
20260507142025 54 134 2.0 3.0 0.00 0.00 0.00 89 1016.9
20260507141024 53 135 1.0 3.0 0.00 0.00 0.00 90 1016.8
20260507140004 52 135 2.0 3.0 0.00 0.00 0.00 90 1016.8
20260507135003 52 167 2.0 6.0 0.00 0.00 0.00 89 1016.7
20260507134003 51 183 1.0 5.0 0.00 0.00 0.00 89 1016.6
20260507133003 51 0 0.0 2.0 0.00 0.00 0.00 89 1016.5
20260507132004 51 0 0.0 0.0 0.00 0.00 0.00 88 1016.3
20260507130024 51 0 0.0 0.0 0.00 0.00 0.00 88 1016.3
20260507125004 51 0 0.0 0.0 0.00 0.00 0.00 88 1016.3
20260507124003 52 0 0.0 0.0 0.00 0.00 0.00 88 1016.2
20260507123003 52 0 0.0 0.0 0.00 0.00 0.00 88 1016.2
20260507122004 52 0 0.0 0.0 0.00 0.00 0.00 88 1016.2
20260507121024 52 0 0.0 0.0 0.00 0.00 0.00 88 1016.2
20260507120025 52 0 0.0 0.0 0.00 0.00 0.00 88 1016.3
20260507115003 52 0 0.0 0.0 0.00 0.00 0.00 88 1016.3
20260507114003 52 0 0.0 0.0 0.00 0.00 0.00 88 1016.3
20260507113004 52 0 0.0 0.0 0.00 0.00 0.00 88 1016.3
20260507112003 52 0 0.0 0.0 0.00 0.00 0.00 87 1016.4
20260507111004 52 0 0.0 0.0 0.00 0.00 0.00 87 1016.4
20260507110003 53 0 0.0 0.0 0.00 0.00 0.00 87 1016.5
20260507104004 53 0 0.0 0.0 0.00 0.00 0.00 87 1016.5
20260507103024 53 0 0.0 0.0 0.00 0.00 0.00 87 1016.6
20260507102003 53 0 0.0 0.0 0.00 0.00 0.00 86 1016.6
20260507101003 53 0 0.0 0.0 0.00 0.00 0.00 86 1016.7
20260507100004 53 0 0.0 0.0 0.00 0.00 0.00 86 1016.8
20260507095003 54 0 0.0 0.0 0.00 0.00 0.00 86 1016.9
20260507094003 54 0 0.0 0.0 0.00 0.00 0.00 86 1016.9
20260507093003 54 0 0.0 0.0 0.00 0.00 0.00 86 1017.0
20260507092003 54 0 0.0 0.0 0.00 0.00 0.00 86 1017.0
20260507091003 55 0 0.0 0.0 0.00 0.00 0.00 86 1017.1
20260507090004 55 0 0.0 0.0 0.00 0.00 0.00 87 1017.2
20260507085003 55 0 0.0 0.0 0.00 0.00 0.00 87 1017.3
20260507084003 55 0 0.0 0.0 0.00 0.00 0.00 87 1017.4
20260507083004 55 0 0.0 0.0 0.00 0.00 0.00 87 1017.4
20260507081004 55 0 0.0 0.0 0.00 0.00 0.00 87 1017.3
20260507080005 56 0 0.0 0.0 0.00 0.00 0.00 87 1017.4
20260507075004 56 0 0.0 0.0 0.00 0.00 0.00 86 1017.4
20260507074004 56 0 0.0 0.0 0.00 0.00 0.00 86 1017.4
20260507073004 56 0 1.0 0.0 0.00 0.00 0.00 86 1017.5
20260507072005 56 229 1.0 3.0 0.00 0.00 0.00 86 1017.5
20260507071005 57 0 0.0 3.0 0.00 0.00 0.00 86 1017.7
20260507070009 57 0 0.0 0.0 0.00 0.00 0.00 85 1017.6
20260507065004 57 0 0.0 0.0 0.00 0.00 0.00 85 1017.7
20260507064004 57 0 0.0 0.0 0.00 0.00 0.00 85 1017.7
20260507063004 57 0 0.0 0.0 0.00 0.00 0.00 85 1017.8
20260507062025 58 0 0.0 0.0 0.00 0.00 0.00 85 1017.8
20260507061004 58 0 0.0 0.0 0.00 0.00 0.00 85 1017.8
20260507060004 58 224 1.0 2.0 0.00 0.00 0.00 85 1017.9
20260507055004 58 224 1.0 4.0 0.00 0.00 0.00 85 1018.0
20260507054004 58 223 1.0 3.0 0.00 0.00 0.00 84 1017.9
20260507053005 58 223 1.0 2.0 0.00 0.00 0.00 84 1017.8
20260507052004 58 223 1.0 3.0 0.00 0.00 0.00 84 1017.8
20260507051004 59 223 0.0 3.0 0.00 0.00 0.00 83 1017.9
20260507050025 59 224 1.0 3.0 0.00 0.00 0.00 83 1017.7
20260507045004 59 225 1.0 3.0 0.00 0.00 0.00 82 1017.7
20260507044004 60 225 1.0 3.0 0.00 0.00 0.00 82 1017.6
20260507043025 60 225 2.0 4.0 0.00 0.00 0.00 82 1017.6
20260507042004 60 223 1.0 5.0 0.00 0.00 0.00 81 1017.6
20260507041004 60 220 1.0 4.0 0.00 0.00 0.00 80 1017.5
20260507040004 61 220 2.0 4.0 0.00 0.00 0.00 80 1017.4
20260507035004 61 220 2.0 3.0 0.00 0.00 0.00 79 1017.3
20260507034004 61 216 2.0 5.0 0.00 0.00 0.00 79 1017.0
20260507033004 62 209 2.0 4.0 0.00 0.00 0.00 78 1017.0
20260507032004 62 225 1.0 4.0 0.00 0.00 0.00 77 1016.8
20260507031004 62 231 1.0 4.0 0.00 0.00 0.00 76 1016.7
20260507030004 62 238 2.0 4.0 0.00 0.00 0.00 75 1016.6
20260507025004 63 247 2.0 5.0 0.00 0.00 0.00 74 1016.5
20260507024004 63 221 3.0 8.0 0.00 0.00 0.00 74 1016.5
20260507023004 64 197 3.0 7.0 0.00 0.00 0.00 73 1016.4
20260507022004 64 208 3.0 8.0 0.00 0.00 0.00 72 1016.5
20260507021025 65 213 4.0 8.0 0.00 0.00 0.00 71 1016.4
20260507020004 66 219 4.0 10.0 0.00 0.00 0.00 69 1016.4
20260507015004 66 214 4.0 8.0 0.00 0.00 0.00 67 1016.3
20260507014004 67 219 4.0 10.0 0.00 0.00 0.00 66 1016.3
20260507013004 68 239 4.0 8.0 0.00 0.00 0.00 62 1016.2
20260507012004 69 251 4.0 9.0 0.00 0.00 0.00 60 1016.3
20260507011004 70 233 4.0 9.0 0.00 0.00 0.00 59 1016.4
20260507010004 70 235 4.0 9.0 0.00 0.00 0.00 58 1016.4
20260507005004 70 246 5.0 9.0 0.00 0.00 0.00 57 1016.3
20260507004004 71 241 4.0 12.0 0.00 0.00 0.00 56 1016.4
20260507003004 72 239 4.0 10.0 0.00 0.00 0.00 55 1016.3
20260507002004 72 247 5.0 10.0 0.00 0.00 0.00 54 1016.3
20260507001004 71 238 5.0 9.0 0.00 0.00 0.00 55 1016.3